Temp
14 14 14 14 15 15 15 15 15 15 15 15 15 16 16 16 16 16 16 15 15 15 15 15 15 15 15 14 14 14 13 13 12 11 11 10 9 9 9 9 9 9 9 9 9 10 10 10 9 9 10 10 10 10 10 10 10 10 10 10 10 10 10 9 9 9 9 9 9
14 14 14 14 14 15 15 15 15 15 15 15 15 15 16 16 16 16 16 15 15 15 15 15 15 15 14 14 14 13 13 12 12 11 11 10 9 9 9 10 10 10 9 9 10 10 9 9 10 10 10 10 10 10 10 10 10 10 10 10 10 10 9 9 9 9 9 9 9
14 14 14 14 14 14 15 15 15 15 15 15 15 15 15 15 15 15 15 15 15 15 15 15 15 14 14 14 14 13 13 12 12 11 11 10 10 9 10 10 10 10 10 10 10 10 10 10 10 10 10 10 10 10 10 10 10 10 9 10 10 10 9 9 9 9 9 9 9
14 14 14 14 14 15 15 15 15 15 15 15 15 15 15 15 15 15 15 15 15 15 15 15 14 14 14 14 13 13 13 12 12 11 11 10 10 9 9 10 10 10 11 11 10 10 10 10 10 10 10 10 10 10 10 10 10 10 9 10 9 9 9 9 9 9 9 9 9
14 14 14 15 15 15 15 15 15 15 15 15 15 15 15 15 15 15 15 14 14 14 14 14 14 14 14 13 13 13 12 12 11 11 10 10 10 9 9 9 10 10 11 11 11 10 10 10 10 10 10 10 10 10 10 10 10 10 10 9 9 9 9 9 9 9 9 9 9
14 14 15 15 15 15 15 15 15 15 15 15 15 15 15 15 15 15 15 15 14 14 14 14 14 14 13 13 13 13 12 12 11 11 10 10 10 9 9 9 10 10 10 11 11 10 10 10 10 10 10 10 10 10 10 10 10 10 10 9 9 9 9 9 9 9 9 9 9
15 15 15 15 15 14 14 14 14 14 14 14 15 15 15 15 15 15 15 15 14 14 14 14 14 13 13 13 13 12 12 12 11 11 10 10 10 9 9 9 10 10 10 10 10 10 10 10 10 10 10 10 10 10 10 10 10 10 10 10 10 9 9 9 9 9 9 9 9
15 15 15 14 14 14 14 14 14 14 14 14 15 15 15 15 15 15 15 14 14 14 14 14 14 13 13 13 13 12 12 12 11 11 10 10 10 9 9 10 10 10 10 10 10 10 10 10 10 11 11 10 10 10 10 10 10 10 10 10 10 9 9 9 9 9 9 9 9
15 14 14 14 14 14 14 14 14 14 14 14 15 15 15 15 15 15 14 14 14 14 14 14 13 13 13 13 12 12 12 11 11 10 10 10 9 9 9 10 10 10 10 10 10 10 10 11 11 11 11 10 10 10 10 10 10 10 10 10 9 9 9 9 9 9 9 9 9
14 14 14 14 14 14 14 14 14 14 14 14 14 14 14 14 14 14 14 14 14 14 14 13 13 13 13 13 12 12 12 11 11 10 10 10 9 9 9 10 10 10 10 10 10 10 10 10 10 10 10 10 10 10 10 10 10 10 9 9 9 9 9 9 9 9 9 8 8
15 15 14 14 14 14 14 14 14 14 14 14 14 14 14 14 14 14 14 14 14 14 13 13 13 13 13 12 12 12 11 11 10 10 10 10 9 9 10 10 10 10 10 10 10 10 10 10 10 10 10 10 10 10 10 10 10 9 9 9 9 9 9 9 9 8 8 8 8
15 14 14 14 14 14 14 13 13 13 13 13 14 14 14 14 14 14 14 14 13 13 13 13 13 13 12 12 12 11 11 11 10 10 10 9 9 9 10 10 10 10 10 10 10 10 10 10 10 10 10 10 10 10 10 9 9 9 9 9 9 9 8 8 8 8 8 8 8
14 14 14 14 14 14 13 13 13 13 13 13 14 14 14 14 14 14 13 13 13 13 13 13 12 12 12 12 11 11 11 10 10 10 10 9 9 9 9 10 10 10 10 9 9 10 10 10 10 10 10 10 10 9 9 9 9 9 9 9 9 8 8 8 8 8 8 8 8
14 14 14 14 14 14 13 13 13 13 13 13 13 14 14 13 13 13 13 13 13 13 13 12 12 12 12 11 11 11 11 10 10 10 10 9 9 9 9 9 10 10 10 10 10 10 10 10 10 10 10 10 9 9 9 9 9 9 9 9 8 8 8 8 8 8 8 8 8
14 14 14 14 14 13 13 13 13 13 13 13 13 13 13 13 13 13 13 13 13 13 12 12 12 12 11 11 11 11 11 10 10 10 10 9 9 9 9 10 10 10 10 10 10 10 10 10 10 10 10 9 9 9 9 9 9 9 9 9 8 8 8 8 8 8 8 8 8
14 14 14 14 14 13 13 13 13 13 13 13 13 13 13 13 13 13 13 13 13 12 12 12 12 11 11 11 11 11 10 10 10 10 10 10 9 9 9 10 10 10 10 10 10 10 10 10 10 10 9 9 9 9 9 9 9 9 9 8 8 8 8 8 8 8 8 8 8
14 14 14 13 13 13 13 13 13 13 13 13 13 13 13 13 13 13 13 13 12 12 12 11 11 11 11 11 10 10 10 10 10 10 10 10 10 10 10 10 10 10 10 10 10 10 10 10 10 10 9 9 9 9 9 9 9 9 9 8 8 8 8 8 8 8 8 8 8
14 14 13 13 13 13 13 13 13 13 13 13 13 13 13 13 13 13 13 12 12 12 11 11 11 11 11 10 10 10 10 10 10 10 10 10 10 10 10 10 10 10 10 10 10 10 10 10 10 9 9 9 9 9 9 9 9 9 8 8 8 8 8 8 8 8 8 8 8
14 14 13 13 13 13 13 13 13 13 13 13 13 13 13 13 13 13 12 12 12 11 11 11 11 11 10 10 10 10 10 10 10 10 10 10 10 10 10 10 10 10 10 10 10 10 10 10 9 9 9 9 9 9 9 9 8 8 8 8 8 8 8 8 8 8 8 8 8
14 14 13 13 13 13 13 13 13 13 13 13 13 13 13 13 13 13 12 12 11 11 11 11 11 10 10 10 10 10 10 10 10 10 10 10 10 10 10 10 10 10 10 10 10 10 10 9 9 9 9 9 9 9 8 8 8 8 8 8 8 8 8 8 8 8 7 7 7
14 13 13 13 13 13 13 13 13 13 13 12 12 12 13 13 12 12 12 12 11 11 11 11 11 10 10 10 10 10 10 10 10 10 10 10 10 10 10 10 10 10 10 10 10 10 9 9 9 9 9 9 9 8 8 8 8 8 8 7 8 8 8 8 8 7 7 7 7
14 13 13 13 13 13 13 13 12 12 12 12 12 12 12 12 12 12 12 11 11 11 11 11 10 10 10 10 10 10 10 10 10 10 10 10 10 10 10 10 10 10 10 10 10 9 9 9 9 9 9 8 8 8 8 7 7 7 7 7 7 7 8 8 7 7 7 7 7
14 13 13 13 13 13 12 12 12 12 12 12 12 12 12 12 12 12 11 11 11 11 11 10 10 10 10 10 10 10 10 10 10 10 10 10 10 10 10 10 10 10 10 10 9 9 9 9 9 8 8 8 8 8 7 7 7 6 6 6 7 7 7 7 7 7 7 6 6
14 13 13 12 12 12 12 12 12 12 12 12 12 12 12 12 12 11 11 11 11 11 10 10 10 10 10 10 10 10 10 10 10 10 10 10 10 10 10 10 10 9 9 9 9 9 9 8 8 8 8 8 7 7 7 6 6 6 6 6 6 7 7 7 7 6 6 6 6
13 13 13 12 12 12 12 12 12 12 12 12 12 12 12 12 11 11 11 11 11 10 10 10 10 10 10 10 10 10 10 10 10 10 10 10 10 10 10 10 9 9 9 9 9 8 8 8 8 8 8 7 7 7 6 6 6 6 6 6 7 7 7 7 6 6 6 6 5
13 13 12 12 12 12 12 12 12 12 12 12 12 12 12 11 11 11 11 11 10 10 10 10 10 10 10 10 10 10 10 10 10 10 10 10 10 10 10 9 9 9 9 9 8 8 8 8 7 7 7 7 6 6 6 6 6 6 6 7 7 7 7 6 6 6 6 5 5
13 12 12 12 12 12 12 12 12 12 12 12 12 12 11 11 11 11 11 10 10 10 10 10 10 10 10 10 10 10 10 10 10 10 10 10 10 10 9 9 9 9 9 8 8 8 8 7 7 7 7 6 6 6 6 6 6 6 7 7 7 7 6 6 6 6 5 5 5
12 12 12 12 12 12 12 12 12 12 12 12 12 12 11 11 11 11 10 10 10 10 10 10 10 10 10 10 10 10 10 10 10 10 10 10 10 9 9 9 9 9 9 8 8 8 7 7 7 7 6 6 6 6 6 6 6 6 7 7 6 6 6 6 6 5 5 5 5
12 12 12 12 12 12 12 12 12 12 12 12 12 11 11 11 11 10 10 10 10 10 10 10 10 10 10 10 10 10 10 10 10 10 10 9 9 9 9 9 9 9 8 8 8 7 7 7 6 6 6 6 6 6 6 6 6 6 6 6 6 6 6 6 5 5 5 5 5
12 12 12 12 12 12 12 12 12 12 12 11 11 11 11 11 10 10 10 10 10 10 10 10 10 10 10 10 10 10 10 10 10 9 9 9 9 9 9 9 9 8 8 8 7 7 7 6 6 5 5 6 6 6 6 6 6 6 6 6 6 6 5 5 5 5 5 5 5
12 12 12 12 12 12 12 12 12 12 11 11 11 11 11 10 10 10 10 10 10 10 10 10 10 10 10 10 10 10 10 9 9 9 9 9 9 9 9 8 8 8 8 7 7 7 6 6 5 5 5 6 6 6 6 6 6 6 6 6 6 5 5 5 5 5 5 5 5
12 12 12 12 12 12 12 12 11 11 11 11 11 11 10 10 10 10 10 10 10 10 10 10 10 10 10 10 10 10 9 9 9 9 9 9 9 9 8 8 8 7 7 7 6 6 6 5 5 5 5 6 6 6 6 6 6 6 6 5 5 5 5 5 5 5 5 5 5
12 12 12 12 12 12 12 11 11 11 11 11 11 10 10 10 10 10 10 10 10 10 10 10 10 10 10 10 10 9 9 9 9 9 8 8 9 8 8 8 7 7 7 6 6 6 6 5 5 6 6 6 6 6 6 6 6 5 5 5 5 5 5 5 5 5 5 5 5
12 12 12 12 12 12 11 11 11 11 11 11 10 10 10 10 10 10 10 10 10 10 10 10 10 10 10 10 10 9 9 9 8 8 8 8 8 8 8 7 7 7 6 6 6 6 6 6 6 6 6 6 6 6 6 6 5 5 5 5 5 5 5 5 5 5 5 5 5
13 12 12 12 12 12 11 11 11 11 11 10 10 10 10 10 10 10 10 10 10 10 10 10 10 10 10 9 9 9 9 9 8 8 8 8 8 7 7 7 7 6 6 6 6 6 6 6 6 6 6 6 5 5 5 5 5 5 5 5 5 5 5 5 5 5 5 5 5
13 13 13 12 12 12 11 11 11 11 10 10 10 10 10 10 10 10 10 10 10 10 10 10 10 10 9 9 9 9 8 8 8 8 8 8 7 7 7 7 6 6 6 6 6 6 6 6 6 6 6 5 5 5 5 5 5 5 5 5 5 5 5 5 5 5 5 5 4
14 14 13 12 12 11 11 11 11 10 10 10 10 10 10 10 10 10 10 10 10 10 10 10 10 9 9 9 8 8 8 8 8 8 8 7 7 7 6 6 6 6 6 6 6 6 6 6 6 6 5 5 5 5 5 5 5 5 5 5 6 5 5 5 5 5 5 4 4
13 13 12 12 11 11 11 11 10 10 10 10 10 10 10 10 10 10 10 10 10 10 10 9 9 9 9 8 8 8 8 8 8 8 8 7 7 6 6 6 6 6 6 6 6 6 6 6 6 5 5 5 5 5 5 5 5 5 5 6 6 5 5 5 5 4 4 4 3
11 11 11 11 11 11 11 10 10 10 10 10 10 10 10 10 10 10 10 10 10 10 10 9 9 8 8 8 8 8 8 8 8 7 7 7 6 6 6 6 6 6 6 6 6 6 6 6 5 5 5 5 5 5 5 5 5 5 5 5 5 5 5 4 4 4 3 3 3
11 11 12 12 11 11 10 10 10 10 10 10 10 10 10 10 10 10 10 9 9 9 9 9 9 8 8 8 8 8 8 7 7 7 7 6 6 6 6 6 6 6 6 6 6 6 6 5 5 5 5 5 5 5 5 5 5 5 5 5 5 5 4 4 4 3 3 3 3
12 12 12 11 11 11 10 10 10 10 10 10 10 10 10 10 10 10 9 9 9 9 9 9 8 8 8 8 8 8 7 7 7 6 6 6 6 6 6 6 6 6 6 6 6 5 5 5 5 5 5 5 5 5 5 5 5 5 5 5 5 4 4 4 3 3 3 2 2
Height
1454 1456 1457 1458 1459 1460 1461 1462 1463 1464 1465 1466 1466 1467 1468 1469 1470 1471 1473 1473 1474 1475 1476 1477 1479 1480 1482 1483 1483 1484 1485 1485 1486 1487 1488 1488 1489 1491 1492 1493 1493 1494 1496 1498 1499 1501 1503 1504 1505 1505 1505 1506 1507 1508 1508 1509 1510 1510 1511 1511 1512 1512 1512 1512 1512 1512 1512 1512 1512
1453 1454 1455 1457 1458 1459 1460 1461 1462 1463 1463 1464 1465 1466 1467 1468 1469 1470 1471 1472 1473 1474 1475 1477 1478 1480 1481 1482 1483 1483 1484 1485 1485 1486 1487 1488 1489 1490 1491 1492 1493 1493 1495 1496 1498 1500 1502 1503 1503 1504 1504 1505 1505 1506 1507 1508 1508 1509 1509 1509 1510 1510 1510 1510 1510 1511 1511 1511 1511
1451 1452 1454 1455 1456 1457 1458 1459 1460 1460 1461 1462 1464 1465 1466 1467 1468 1469 1470 1471 1472 1473 1475 1476 1478 1479 1480 1481 1482 1483 1483 1484 1485 1485 1486 1487 1488 1489 1490 1491 1492 1493 1494 1495 1497 1499 1501 1502 1502 1503 1503 1504 1504 1505 1506 1507 1507 1508 1508 1508 1509 1509 1509 1509 1509 1509 1509 1510 1510
1449 1450 1452 1453 1454 1455 1456 1456 1458 1458 1460 1461 1463 1464 1465 1466 1468 1468 1470 1471 1472 1473 1474 1476 1477 1478 1479 1480 1481 1482 1483 1483 1484 1485 1485 1486 1487 1488 1489 1490 1491 1492 1493 1495 1497 1498 1500 1501 1501 1502 1503 1503 1503 1504 1505 1505 1506 1506 1507 1507 1508 1508 1508 1508 1508 1508 1508 1508 1508
1447 1448 1450 1451 1452 1453 1454 1455 1456 1458 1459 1460 1462 1463 1464 1465 1467 1468 1469 1469 1470 1472 1473 1475 1477 1478 1479 1479 1480 1481 1482 1483 1483 1484 1485 1485 1486 1487 1488 1489 1491 1492 1493 1494 1496 1498 1499 1500 1500 1501 1502 1502 1503 1503 1504 1504 1505 1505 1506 1506 1506 1506 1507 1507 1507 1507 1508 1508 1508
1445 1447 1448 1449 1450 1452 1453 1454 1455 1457 1458 1459 1460 1462 1463 1464 1465 1466 1467 1468 1469 1471 1473 1475 1476 1477 1478 1479 1479 1480 1481 1482 1483 1483 1484 1485 1485 1486 1488 1488 1490 1491 1493 1494 1495 1497 1498 1499 1499 1500 1501 1501 1502 1503 1503 1503 1504 1504 1504 1505 1505 1505 1506 1505 1506 1506 1507 1507 1506
1443 1445 1446 1448 1449 1450 1452 1453 1454 1455 1457 1458 1459 1460 1462 1463 1464 1465 1466 1467 1469 1470 1472 1474 1475 1476 1477 1478 1478 1479 1480 1481 1482 1483 1483 1484 1485 1486 1487 1488 1489 1490 1492 1493 1494 1496 1497 1497 1498 1499 1500 1501 1501 1502 1502 1503 1503 1503 1504 1504 1504 1505 1505 1505 1505 1506 1505 1505 1505
1442 1443 1445 1446 1448 1449 1450 1451 1453 1454 1455 1456 1458 1459 1460 1462 1463 1464 1466 1467 1468 1470 1472 1473 1474 1475 1476 1477 1478 1478 1479 1480 1481 1482 1483 1483 1484 1485 1486 1487 1488 1490 1491 1492 1493 1494 1495 1496 1497 1498 1499 1500 1500 1501 1501 1502 1502 1503 1503 1503 1503 1504 1504 1504 1504 1504 1504 1504 1504
1441 1442 1443 1445 1446 1448 1449 1450 1451 1452 1453 1455 1456 1458 1460 1461 1462 1463 1465 1466 1468 1469 1471 1472 1473 1474 1475 1476 1477 1478 1479 1480 1480 1481 1482 1483 1483 1484 1486 1487 1488 1489 1490 1491 1492 1493 1494 1495 1496 1497 1498 1499 1499 1500 1500 1501 1501 1502 1502 1502 1503 1503 1503 1503 1503 1503 1503 1503 1503
1438 1440 1442 1443 1445 1446 1448 1449 1450 1451 1452 1454 1455 1457 1459 1460 1462 1463 1464 1466 1467 1469 1470 1472 1473 1473 1474 1475 1476 1477 1478 1479 1480 1481 1481 1482 1483 1484 1485 1486 1487 1488 1489 1490 1492 1493 1494 1495 1496 1497 1497 1498 1498 1499 1499 1500 1500 1501 1501 1502 1502 1502 1502 1502 1502 1502 1502 1502 1502
1437 1438 1440 1442 1443 1444 1446 1448 1449 1450 1451 1453 1455 1456 1458 1459 1460 1462 1463 1465 1467 1468 1469 1471 1472 1473 1474 1475 1476 1477 1478 1478 1479 1480 1481 1481 1482 1483 1484 1485 1486 1488 1489 1490 1491 1492 1493 1494 1495 1496 1497 1497 1498 1498 1498 1499 1500 1500 1501 1501 1501 1501 1501 1501 1501 1501 1501 1501 1501
1435 1437 1438 1440 1442 1443 1445 1446 1447 1449 1450 1452 1453 1455 1457 1458 1460 1461 1463 1465 1466 1467 1469 1470 1471 1472 1473 1474 1475 1476 1477 1478 1478 1479 1480 1481 1482 1483 1483 1485 1486 1487 1488 1489 1491 1492 1493 1493 1494 1495 1495 1496 1497 1497 1498 1498 1499 1499 1500 1500 1500 1500 1501 1500 1500 1500 1500 1500 1500
1434 1436 1438 1439 1441 1442 1443 1445 1446 1448 1449 1451 1452 1454 1456 1457 1459 1461 1463 1464 1465 1467 1468 1469 1470 1472 1473 1473 1474 1475 1476 1477 1478 1478 1479 1480 1481 1482 1483 1484 1485 1487 1488 1489 1490 1491 1492 1493 1493 1494 1494 1495 1496 1497 1497 1498 1498 1498 1499 1499 1499 1499 1499 1499 1499 1499 1499 1499 1499
1433 1435 1436 1438 1439 1441 1442 1443 1445 1446 1448 1449 1451 1453 1455 1457 1458 1460 1462 1463 1464 1466 1467 1468 1470 1471 1472 1473 1474 1474 1475 1476 1477 1478 1478 1479 1480 1481 1482 1483 1485 1486 1487 1488 1489 1490 1491 1492 1493 1493 1494 1495 1495 1496 1496 1497 1497 1498 1498 1498 1498 1498 1498 1498 1498 1498 1498 1498 1498
1432 1433 1435 1437 1438 1439 1441 1442 1443 1445 1446 1448 1450 1452 1454 1456 1458 1460 1461 1462 1464 1465 1466 1468 1469 1470 1471 1472 1473 1474 1475 1475 1476 1477 1478 1479 1480 1481 1482 1483 1484 1486 1487 1488 1489 1490 1490 1491 1492 1493 1493 1494 1494 1495 1496 1496 1497 1497 1497 1497 1497 1497 1497 1497 1497 1497 1497 1497 1496
1431 1432 1434 1435 1437 1438 1439 1441 1442 1444 1445 1447 1449 1451 1453 1455 1457 1459 1460 1461 1463 1464 1466 1467 1468 1469 1470 1471 1472 1473 1474 1475 1476 1476 1477 1478 1479 1480 1481 1483 1484 1485 1486 1487 1488 1489 1490 1490 1491 1492 1493 1493 1494 1495 1495 1496 1496 1496 1496 1496 1496 1496 1496 1496 1496 1496 1496 1496 1495
1429 1431 1432 1433 1435 1436 1438 1440 1441 1443 1444 1446 1448 1450 1453 1454 1456 1458 1459 1460 1462 1463 1464 1466 1467 1468 1469 1470 1472 1473 1473 1474 1475 1476 1477 1478 1479 1480 1481 1482 1483 1485 1486 1487 1488 1488 1489 1490 1490 1491 1492 1493 1493 1494 1494 1494 1494 1495 1495 1495 1496 1496 1495 1495 1495 1495 1495 1494 1494
1428 1429 1431 1432 1433 1435 1437 1438 1440 1441 1443 1445 1448 1450 1452 1454 1455 1457 1458 1460 1461 1462 1463 1465 1466 1467 1468 1470 1471 1472 1473 1474 1475 1476 1477 1478 1479 1480 1481 1482 1483 1484 1485 1486 1487 1488 1488 1489 1490 1491 1492 1492 1492 1493 1493 1493 1494 1494 1495 1495 1495 1494 1494 1494 1494 1494 1494 1493 1493
1426 1428 1429 1431 1432 1434 1436 1437 1438 1440 1442 1445 1447 1449 1451 1453 1454 1456 1457 1459 1460 1461 1462 1463 1465 1467 1468 1469 1470 1471 1472 1473 1475 1476 1477 1478 1479 1480 1481 1482 1482 1483 1484 1485 1486 1488 1488 1489 1490 1490 1491 1491 1491 1492 1493 1493 1494 1494 1494 1494 1494 1493 1493 1493 1493 1493 1493 1493 1493
1424 1426 1428 1429 1431 1433 1435 1436 1438 1440 1442 1445 1447 1449 1450 1452 1453 1455 1457 1458 1459 1460 1462 1463 1464 1466 1468 1468 1470 1471 1472 1473 1475 1476 1477 1478 1478 1479 1480 1481 1482 1483 1484 1485 1486 1487 1488 1488 1489 1489 1490 1490 1491 1492 1492 1493 1493 1493 1493 1493 1493 1493 1493 1493 1493 1492 1492 1492 1492
1423 1425 1427 1428 1430 1432 1434 1435 1437 1440 1443 1445 1446 1448 1450 1451 1453 1454 1456 1457 1458 1459 1461 1463 1464 1466 1467 1468 1469 1471 1472 1473 1475 1476 1477 1477 1478 1479 1480 1481 1482 1483 1484 1485 1486 1487 1487 1488 1488 1489 1490 1490 1491 1491 1492 1492 1492 1492 1492 1492 1492 1492 1492 1492 1492 1491 1491 1491 1491
1422 1424 1426 1428 1430 1431 1433 1435 1438 1440 1443 1444 1446 1447 1449 1451 1452 1453 1455 1456 1457 1459 1461 1463 1464 1465 1466 1468 1469 1470 1472 1473 1474 1475 1476 1477 1478 1479 1480 1481 1482 1483 1484 1485 1485 1486 1487 1488 1488 1489 1489 1490 1490 1490 1491 1491 1491 1491 1491 1491 1491 1491 1491 1491 1490 1490 1490 1490 1490
1421 1423 1425 1427 1429 1431 1433 1435 1438 1440 1442 1444 1445 1447 1448 1450 1451 1453 1454 1455 1457 1459 1461 1463 1464 1465 1466 1468 1469 1470 1471 1473 1474 1475 1476 1477 1478 1479 1480 1481 1482 1483 1483 1484 1485 1486 1486 1487 1488 1488 1489 1489 1489 1490 1490 1490 1491 1490 1490 1490 1490 1490 1490 1490 1489 1489 1489 1489 1489
1420 1422 1425 1427 1428 1430 1433 1435 1438 1439 1441 1443 1444 1446 1447 1449 1450 1452 1453 1455 1457 1459 1461 1462 1463 1465 1466 1468 1468 1470 1471 1472 1473 1474 1475 1476 1477 1478 1479 1481 1482 1482 1483 1484 1485 1485 1486 1487 1487 1488 1488 1488 1489 1489 1489 1490 1490 1490 1489 1489 1489 1489 1489 1489 1489 1489 1489 1489 1489
1419 1421 1423 1425 1427 1430 1432 1434 1437 1438 1440 1442 1443 1445 1446 1448 1449 1451 1453 1455 1457 1459 1460 1462 1463 1464 1466 1467 1468 1470 1471 1472 1473 1474 1475 1476 1477 1478 1479 1480 1481 1482 1483 1483 1484 1485 1486 1486 1487 1487 1488 1488 1488 1488 1489 1489 1489 1489 1489 1488 1488 1488 1488 1488 1488 1488 1488 1488 1488
1418 1420 1423 1424 1426 1429 1431 1433 1436 1438 1439 1441 1442 1444 1445 1447 1449 1451 1453 1455 1457 1458 1460 1461 1463 1464 1465 1467 1468 1469 1470 1472 1473 1473 1474 1475 1477 1478 1479 1480 1481 1481 1482 1483 1484 1484 1485 1486 1486 1487 1487 1488 1488 1488 1488 1488 1488 1488 1488 1488 1488 1488 1488 1488 1488 1488 1488 1488 1488
1418 1420 1422 1423 1426 1428 1430 1433 1434 1436 1438 1439 1441 1443 1445 1447 1449 1451 1453 1455 1456 1458 1459 1461 1463 1464 1465 1467 1468 1469 1470 1471 1472 1473 1474 1475 1476 1477 1478 1479 1480 1481 1482 1483 1483 1484 1485 1486 1486 1487 1487 1487 1487 1487 1488 1488 1488 1488 1488 1488 1488 1488 1488 1488 1488 1488 1488 1488 1488
1417 1419 1421 1423 1425 1428 1429 1432 1433 1435 1437 1438 1440 1443 1445 1447 1449 1451 1453 1454 1456 1458 1459 1461 1463 1464 1465 1466 1468 1469 1470 1471 1472 1473 1474 1475 1476 1477 1478 1478 1479 1480 1481 1482 1483 1484 1485 1485 1486 1486 1486 1487 1487 1487 1487 1487 1487 1487 1487 1487 1488 1488 1488 1488 1488 1488 1488 1488 1488
1416 1418 1420 1422 1424 1427 1428 1430 1432 1434 1436 1438 1440 1442 1444 1446 1448 1450 1452 1453 1455 1457 1459 1461 1462 1463 1465 1466 1467 1468 1469 1470 1471 1472 1473 1474 1476 1477 1477 1478 1479 1480 1481 1482 1483 1484 1485 1485 1485 1486 1486 1486 1486 1486 1486 1487 1487 1487 1487 1487 1488 1488 1488 1488 1488 1488 1488 1488 1488
1416 1418 1420 1422 1423 1425 1427 1429 1431 1433 1435 1437 1439 1442 1444 1446 1448 1449 1451 1453 1455 1457 1458 1460 1461 1463 1464 1465 1467 1468 1468 1470 1471 1472 1473 1474 1475 1476 1477 1478 1479 1480 1481 1482 1483 1484 1484 1485 1485 1485 1485 1485 1485 1486 1486 1486 1487 1487 1487 1487 1487 1488 1488 1488 1488 1488 1488 1488 1487
1416 1418 1419 1421 1423 1425 1427 1428 1431 1433 1435 1437 1439 1441 1443 1445 1447 1449 1451 1453 1455 1457 1458 1459 1461 1463 1464 1465 1466 1467 1468 1469 1470 1471 1473 1473 1474 1476 1477 1478 1479 1480 1481 1482 1483 1483 1484 1484 1484 1484 1484 1484 1485 1485 1486 1486 1486 1486 1487 1487 1487 1487 1487 1488 1488 1488 1487 1487 1487
1415 1417 1419 1421 1422 1424 1426 1428 1430 1432 1434 1436 1438 1440 1442 1445 1447 1449 1451 1453 1455 1456 1458 1459 1461 1462 1463 1464 1465 1466 1468 1468 1470 1471 1472 1473 1474 1475 1477 1478 1479 1480 1481 1482 1483 1483 1483 1483 1484 1484 1484 1484 1484 1485 1485 1486 1486 1486 1486 1487 1487 1487 1487 1487 1487 1487 1487 1487 1487
1415 1417 1418 1420 1422 1423 1425 1427 1429 1431 1433 1435 1437 1439 1442 1444 1447 1449 1451 1453 1454 1455 1457 1458 1460 1461 1462 1463 1464 1466 1467 1468 1469 1471 1472 1473 1474 1475 1477 1478 1479 1480 1481 1482 1482 1483 1483 1483 1483 1483 1483 1483 1484 1484 1485 1485 1485 1486 1486 1486 1487 1487 1487 1487 1487 1487 1487 1487 1487
1414 1416 1418 1420 1421 1423 1424 1426 1428 1430 1432 1434 1437 1439 1442 1444 1446 1448 1450 1452 1453 1455 1457 1458 1459 1461 1462 1463 1464 1465 1467 1468 1469 1470 1472 1473 1474 1475 1476 1478 1479 1480 1481 1481 1482 1482 1482 1482 1483 1483 1483 1483 1484 1484 1484 1485 1485 1486 1486 1486 1487 1487 1487 1487 1487 1487 1487 1487 1486
1413 1415 1417 1419 1420 1422 1423 1425 1427 1429 1431 1433 1436 1439 1441 1444 1446 1448 1449 1451 1453 1454 1456 1458 1459 1460 1462 1463 1464 1465 1466 1468 1469 1470 1471 1473 1474 1475 1476 1477 1478 1479 1480 1481 1481 1481 1482 1482 1482 1483 1483 1483 1483 1484 1484 1485 1485 1486 1486 1486 1487 1487 1487 1487 1487 1487 1487 1487 1486
1411 1413 1415 1417 1418 1420 1422 1424 1426 1428 1431 1433 1436 1438 1441 1443 1445 1447 1448 1450 1452 1454 1455 1457 1459 1460 1461 1463 1464 1465 1466 1467 1468 1470 1471 1473 1473 1475 1476 1477 1478 1479 1480 1480 1481 1481 1481 1482 1482 1482 1483 1483 1483 1484 1484 1485 1485 1486 1486 1486 1487 1487 1487 1487 1487 1487 1486 1486 1486
1409 1410 1412 1414 1416 1418 1420 1423 1425 1428 1430 1433 1436 1438 1440 1443 1444 1446 1448 1449 1451 1453 1455 1457 1458 1460 1461 1462 1463 1465 1466 1467 1468 1470 1471 1473 1473 1475 1476 1477 1478 1478 1479 1480 1480 1481 1481 1482 1482 1482 1482 1483 1483 1484 1484 1485 1485 1486 1486 1486 1487 1487 1487 1487 1487 1486 1486 1486 1485
1405 1407 1408 1411 1414 1417 1420 1423 1425 1428 1430 1433 1435 1438 1440 1442 1443 1445 1447 1449 1451 1453 1455 1456 1458 1459 1460 1462 1463 1464 1466 1468 1469 1470 1471 1473 1474 1475 1476 1477 1478 1478 1479 1480 1480 1481 1481 1481 1482 1482 1483 1483 1483 1484 1484 1485 1485 1486 1486 1486 1486 1486 1486 1486 1486 1486 1486 1485 1485
1403 1405 1408 1411 1414 1417 1420 1423 1425 1427 1430 1433 1435 1437 1439 1441 1443 1445 1447 1449 1451 1453 1454 1456 1458 1459 1460 1461 1463 1464 1466 1468 1469 1470 1471 1473 1474 1475 1476 1477 1478 1478 1479 1479 1480 1481 1481 1481 1482 1482 1483 1483 1483 1484 1484 1485 1485 1486 1486 1486 1486 1486 1486 1486 1486 1486 1485 1485 1484
1404 1407 1410 1413 1415 1417 1420 1423 1425 1428 1430 1432 1435 1437 1439 1441 1443 1445 1447 1449 1451 1453 1454 1456 1457 1458 1460 1461 1462 1464 1465 1467 1469 1470 1472 1473 1474 1475 1476 1477 1478 1478 1479 1479 1480 1480 1481 1481 1482 1482 1483 1483 1483 1484 1484 1485 1485 1485 1486 1486 1486 1486 1486 1486 1485 1485 1485 1484 1484
1407 1409 1411 1413 1415 1418 1420 1423 1425 1428 1430 1433 1435 1437 1438 1440 1442 1444 1446 1448 1450 1452 1453 1455 1456 1458 1459 1461 1462 1463 1465 1467 1469 1470 1472 1473 1474 1475 1476 1477 1477 1478 1478 1479 1479 1480 1481 1481 1482 1483 1483 1483 1484 1484 1485 1485 1485 1485 1485 1485 1486 1486 1485 1485 1485 1485 1485 1484 1484
Wind_Speed
45 44 43 43 43 42 42 41 40 40 39 38 37 36 35 34 33 31 30 30 29 28 27 25 22 20 19 19 19 20 21 22 23 24 26 27 28 30 31 33 34 34 33 32 30 28 27 26 25 25 25 25 25 24 23 22 22 21 20 19 20 21 22 22 21 19 19 20 21
45 44 44 43 43 42 42 41 41 41 40 39 38 37 36 34 33 31 31 30 29 28 26 24 21 19 18 18 18 19 20 21 22 22 24 25 27 29 30 32 33 34 33 32 29 26 24 23 24 25 26 26 26 25 24 22 22 21 20 20 20 22 24 24 23 21 19 19 20
45 45 44 43 43 42 42 42 42 41 41 40 39 38 36 35 33 32 31 30 29 28 26 24 21 19 18 17 17 18 19 20 21 21 22 23 25 28 30 31 33 33 33 32 29 26 23 22 23 25 26 27 26 25 24 23 22 22 21 20 20 22 25 26 25 23 21 20 21
45 44 44 44 43 43 43 42 42 42 41 40 40 39 37 35 34 32 31 30 30 28 26 23 20 18 17 17 17 17 18 19 20 20 21 21 23 25 27 30 31 32 32 31 29 26 24 22 23 25 26 27 26 25 24 23 22 22 21 20 21 23 26 28 27 26 23 21 21
45 45 44 44 44 44 43 43 42 41 41 40 40 38 37 36 34 33 32 31 30 28 26 22 20 18 17 17 17 17 17 18 19 20 20 21 22 23 24 27 29 30 30 29 27 25 24 23 24 25 26 26 25 24 24 23 22 22 21 22 23 24 26 28 28 26 24 22 23
45 45 45 45 44 44 43 43 42 41 41 40 39 38 37 35 34 33 32 32 30 28 24 22 19 18 17 17 17 17 17 17 18 19 20 20 21 21 22 24 26 28 28 27 26 24 24 24 25 25 25 25 24 24 23 23 22 22 22 23 23 24 26 28 27 25 24 24 25
45 45 45 45 45 44 43 43 42 42 41 40 39 38 36 35 34 33 32 31 29 27 24 21 19 18 17 17 17 16 16 16 17 18 19 19 20 21 21 22 24 25 26 25 24 24 24 24 25 25 24 24 24 23 23 23 22 22 22 22 22 24 25 26 25 24 24 25 27
45 45 45 44 44 44 44 43 43 42 41 40 39 37 36 35 34 33 32 31 29 26 23 21 19 18 17 17 16 16 16 16 16 17 18 18 19 20 21 21 23 24 24 24 24 24 24 24 24 23 23 23 23 23 23 22 22 22 22 22 22 22 23 23 22 23 24 26 27
44 44 44 44 44 44 43 43 43 42 41 40 39 37 35 34 33 33 32 30 28 25 23 21 19 18 17 16 16 16 15 15 15 16 16 17 18 19 20 21 22 23 24 24 23 23 23 23 22 21 21 21 22 22 22 22 22 21 21 21 21 21 21 21 21 23 24 25 25
44 45 44 44 44 44 43 43 43 42 41 40 38 37 35 34 34 33 31 29 27 24 22 21 19 18 17 16 16 15 15 14 14 15 15 17 17 18 19 20 21 22 22 22 22 22 22 21 21 20 20 21 21 22 21 21 21 20 19 18 19 19 20 21 21 22 23 24 25
45 45 44 44 44 43 43 42 42 42 41 39 38 37 35 35 34 32 30 28 26 24 22 21 19 18 17 16 16 15 15 14 14 14 15 16 17 18 18 19 19 20 20 20 20 20 19 19 20 20 21 21 21 21 21 20 19 18 18 18 18 19 20 20 21 22 23 24 25
45 44 44 43 43 43 42 42 42 41 40 39 38 37 36 35 33 31 29 27 25 24 22 20 19 18 17 16 16 15 15 15 14 15 16 17 17 18 18 18 18 17 17 17 17 17 17 17 19 20 21 21 20 19 19 18 17 17 17 17 17 18 19 20 21 23 24 24 24
44 43 43 43 43 42 42 42 41 40 40 39 38 37 36 34 32 30 28 26 25 23 21 20 19 18 17 16 16 16 15 15 15 15 16 17 18 18 18 18 17 16 15 15 15 15 15 16 18 20 20 19 19 18 17 17 17 16 16 16 17 18 19 21 22 23 23 22 21
43 43 42 42 42 42 42 41 41 40 39 39 38 37 35 33 31 29 27 26 24 23 21 20 18 18 17 17 17 16 16 16 16 16 17 17 18 18 18 17 16 15 14 14 14 14 15 16 17 18 18 18 17 17 16 16 16 15 16 17 18 20 20 21 21 21 20 19 18
43 42 42 42 42 42 41 41 41 40 39 38 37 36 34 32 30 28 27 25 24 22 21 19 19 18 18 17 17 16 16 16 16 16 17 18 18 18 18 17 15 14 14 14 14 14 15 16 17 17 17 16 16 15 15 15 16 17 18 19 20 20 20 19 19 18 17 15 14
42 42 42 42 42 42 41 41 40 40 39 38 37 35 33 31 29 27 26 25 23 22 20 20 19 19 19 18 17 16 16 16 16 17 17 18 18 18 17 16 16 15 14 14 14 15 15 16 16 16 16 15 15 15 16 17 18 20 21 20 19 18 17 16 15 14 13 12 12
42 42 42 42 42 41 41 40 39 39 39 38 36 34 32 30 28 27 26 25 23 22 21 21 21 20 19 18 17 16 16 16 16 16 16 16 16 16 16 16 16 16 15 15 15 16 16 16 16 16 15 15 16 17 18 19 20 20 20 18 17 15 14 12 11 11 11 12 13
42 42 42 41 41 41 41 40 39 39 38 37 35 33 31 29 28 27 26 24 23 22 22 22 22 21 19 18 17 17 16 16 15 15 15 14 14 14 15 16 16 16 16 16 16 16 16 16 16 16 16 17 18 19 20 20 19 18 16 15 13 11 10 10 10 11 12 13 13
43 42 42 41 41 41 40 40 40 39 37 35 33 32 30 29 27 26 25 24 23 23 23 23 22 21 19 18 17 17 16 15 15 14 13 13 13 13 14 16 17 17 17 17 16 16 16 17 17 18 19 20 20 19 18 17 15 13 12 10 10 9 9 10 11 11 12 12 12
43 43 42 41 41 40 40 40 39 38 35 33 32 30 29 28 27 26 25 25 24 24 24 23 22 20 19 18 17 17 16 16 15 14 14 14 14 15 15 16 17 17 17 17 16 17 18 18 19 19 19 18 17 15 14 12 10 9 9 9 9 10 10 10 11 11 12 12 12
43 42 41 41 40 40 39 39 38 36 33 32 31 30 29 28 27 26 25 25 25 25 24 23 21 20 19 18 17 17 17 16 16 16 16 16 16 16 17 17 17 17 17 17 17 18 19 19 18 17 15 14 12 11 10 9 8 8 9 10 10 11 10 10 11 11 12 12 12
43 41 40 40 39 39 38 38 36 34 32 31 30 29 28 27 27 26 26 26 26 25 24 22 21 19 18 17 17 17 17 17 17 17 17 17 18 18 18 17 17 17 16 16 17 18 18 17 15 13 11 10 10 9 9 8 8 8 10 11 11 11 10 10 11 11 12 12 11
42 41 39 38 38 38 37 35 34 32 31 30 30 29 28 28 27 27 27 26 26 25 23 22 20 19 18 17 18 18 18 18 18 18 18 18 19 19 18 17 16 16 15 16 17 17 16 13 11 10 10 10 9 8 8 8 8 9 10 11 11 10 10 10 11 11 11 10 10
42 40 38 37 37 36 35 34 33 32 31 31 30 30 29 28 28 28 27 26 25 24 23 21 20 19 18 18 19 18 18 18 18 19 19 19 20 19 18 16 14 14 14 15 15 13 11 10 10 10 9 8 8 7 7 8 9 9 10 10 10 10 10 10 10 9 9 8 7
40 39 37 36 36 35 34 33 33 32 31 31 31 30 29 29 29 28 27 26 25 24 23 22 21 20 20 20 20 19 18 18 19 19 20 20 20 18 16 13 13 13 13 13 12 11 10 9 9 8 7 7 6 7 8 9 9 8 8 8 9 9 9 8 8 7 6 5 5
39 38 37 36 36 35 34 33 33 32 32 32 31 31 30 29 28 28 27 26 26 25 24 23 21 21 22 22 20 18 17 18 18 18 19 19 18 16 13 13 13 13 12 12 11 10 10 9 8 7 7 7 7 8 8 8 7 6 7 7 8 8 7 6 5 5 4 3 2
38 38 37 36 35 35 34 34 33 33 33 32 32 31 30 29 28 28 28 27 27 26 24 22 22 23 22 21 19 18 18 18 18 18 17 17 16 15 14 14 14 13 12 12 12 11 10 9 8 8 8 7 7 7 6 5 5 5 6 6 6 6 5 4 3 2 1 1 1
39 38 37 36 35 35 35 34 34 34 33 33 32 31 30 29 29 29 29 29 28 26 24 23 23 23 22 19 18 18 18 18 18 17 16 15 15 15 15 15 14 13 13 13 13 12 11 10 9 8 8 7 7 6 6 5 5 5 5 5 4 3 2 1 1 1 2 2 2
39 38 37 36 35 35 35 35 35 34 33 32 31 31 30 30 30 30 30 29 27 26 25 25 25 23 21 19 19 19 19 19 18 17 16 16 16 17 16 15 14 14 14 14 13 12 11 10 9 8 7 7 7 7 6 5 5 4 3 2 1 1 0 1 1 2 3 3 3
39 38 37 36 36 36 36 35 35 34 33 32 32 31 31 31 31 31 30 28 27 26 26 27 25 22 20 20 20 21 21 20 18 17 16 16 17 17 16 15 14 15 15 14 13 12 11 9 8 7 7 8 8 7 6 4 3 2 1 0 0 1 1 2 3 3 3 3 3
39 38 38 37 37 36 36 35 35 34 33 33 32 32 32 32 32 30 29 27 26 27 28 27 24 21 21 21 22 22 21 19 18 17 17 17 17 17 16 15 15 15 15 14 13 12 10 9 8 8 8 8 8 6 4 3 1 1 0 0 1 2 2 3 4 4 4 3 2
39 38 38 37 37 37 36 36 35 35 34 34 33 33 33 33 31 29 27 26 27 29 28 25 22 21 22 23 23 22 21 19 18 18 17 17 17 16 16 16 16 16 15 14 13 12 10 9 8 8 8 8 7 5 3 1 0 0 1 1 2 3 4 4 4 3 3 2 2
39 39 38 38 37 37 37 37 36 36 35 35 34 34 33 33 31 28 27 27 29 29 27 24 22 22 23 23 23 21 20 19 19 18 17 17 17 17 17 17 16 15 14 14 13 12 11 10 9 9 8 7 5 3 2 1 1 1 2 2 3 4 4 4 4 3 2 2 3
40 39 39 38 38 38 38 38 37 37 37 36 35 34 33 32 30 28 29 30 30 28 25 22 22 23 23 22 21 21 20 19 19 18 17 17 17 18 18 17 16 15 14 13 13 12 11 10 9 8 7 5 4 3 2 2 2 2 3 4 5 5 5 4 3 3 3 4 5
40 40 39 39 39 39 40 40 39 38 38 36 35 34 33 31 30 30 32 32 31 27 24 23 23 24 23 21 21 20 19 19 18 18 18 18 18 17 17 16 15 14 14 13 12 11 10 9 8 7 6 4 4 3 3 3 3 4 5 5 6 6 5 4 3 3 4 5 6
40 40 41 41 42 42 42 41 40 39 38 37 35 34 33 31 31 32 33 33 30 26 25 25 25 24 23 22 21 20 18 18 18 18 18 18 17 16 15 15 15 14 14 13 12 10 9 7 6 6 5 5 4 4 4 4 5 5 6 6 6 5 4 3 3 4 5 6 6
43 44 45 45 45 44 43 42 40 39 38 37 35 34 33 33 34 34 34 32 28 26 25 26 26 24 23 22 20 19 18 17 17 18 18 17 16 14 14 14 14 15 14 12 11 9 8 6 6 6 5 5 5 5 5 5 6 6 6 5 5 4 4 4 4 5 5 6 7
48 48 48 47 46 44 43 42 41 40 39 37 35 34 33 34 35 35 33 30 26 25 25 26 25 24 22 21 20 19 18 18 18 18 18 17 15 14 13 13 14 14 13 12 10 8 7 7 7 6 6 5 5 5 6 6 6 6 5 5 4 4 4 5 5 5 6 6 7
50 49 47 45 44 43 42 42 41 40 38 37 35 34 34 35 35 34 31 28 25 25 25 25 25 23 22 20 20 20 20 19 18 18 18 17 15 14 13 13 13 13 12 10 9 8 8 8 8 7 7 6 6 6 6 6 6 6 5 4 4 5 5 5 5 5 6 6 7
47 45 44 43 43 43 42 42 41 39 38 36 35 35 35 36 34 32 29 27 26 25 25 25 24 23 21 21 21 21 21 21 20 19 18 17 17 16 14 13 13 12 11 10 9 9 9 8 8 8 8 7 7 7 6 6 6 5 5 4 4 5 5 5 5 5 6 7 8
43 43 42 42 42 42 42 41 40 39 37 36 35 35 36 35 33 31 29 28 27 27 26 25 24 23 22 22 22 22 22 22 22 21 19 18 18 16 14 12 11 11 11 10 10 10 9 9 9 9 9 8 8 7 7 6 5 5 5 5 4 5 5 5 5 6 6 7 8
Wind_Direction
218 219 220 221 223 224 226 228 230 232 234 235 236 237 239 240 241 241 243 244 245 246 248 249 250 250 250 248 246 245 243 242 240 239 237 235 234 233 233 234 235 237 238 239 240 241 242 245 247 249 251 252 253 254 255 256 257 257 257 257 258 258 257 256 255 256 260 266 271
218 220 221 222 223 225 226 228 230 232 234 236 237 239 240 241 242 243 244 245 247 248 250 251 251 251 250 249 248 246 244 242 242 241 239 236 234 234 234 234 236 237 239 239 240 242 244 245 246 248 249 250 251 252 253 255 256 256 257 258 259 260 259 258 256 255 257 262 268
218 220 221 222 223 224 226 228 230 231 233 235 237 239 240 242 243 244 245 247 248 249 250 251 252 251 250 250 249 247 245 243 242 242 241 238 235 233 233 234 235 237 238 238 240 243 245 246 247 247 248 249 250 251 252 253 255 255 256 257 258 259 259 258 258 258 258 262 267
218 219 220 222 223 225 227 229 230 232 233 235 236 238 239 241 243 244 246 247 248 249 250 251 252 251 250 249 248 247 245 244 242 242 243 241 236 234 233 234 235 236 237 238 240 242 245 247 246 246 247 248 249 250 251 252 254 255 255 256 255 255 257 259 261 261 263 266 269
217 219 221 223 225 227 229 230 231 232 233 234 235 236 238 241 242 243 245 246 247 249 250 251 251 250 249 249 248 247 245 243 241 241 242 241 238 236 234 234 235 237 238 239 241 242 244 245 245 245 245 247 248 250 251 252 253 255 255 255 253 254 256 258 260 264 267 270 270
218 220 222 224 226 227 229 230 231 232 233 234 235 236 238 240 241 242 243 244 247 249 250 250 250 248 247 247 246 245 244 242 240 240 240 240 238 236 235 234 235 236 238 239 241 242 243 242 242 242 243 245 248 250 251 252 253 255 257 257 258 259 260 259 262 266 270 271 269
219 220 221 223 225 226 227 229 230 232 233 234 235 236 238 240 241 242 243 245 247 248 249 249 248 246 245 244 244 243 242 240 238 238 238 239 237 236 235 235 235 236 237 238 240 240 240 240 239 239 240 243 247 249 251 253 255 257 260 262 265 267 266 266 268 270 270 270 268
220 220 221 222 223 225 226 228 229 231 232 233 235 237 238 240 241 243 244 245 246 248 248 248 246 245 243 243 242 241 240 238 236 235 236 237 235 234 234 234 235 235 236 237 238 239 239 238 237 238 240 244 247 250 253 255 258 260 263 265 268 269 270 271 271 270 269 268 267
218 219 220 221 223 224 226 227 229 230 232 233 235 237 238 240 241 242 243 244 247 248 248 247 245 244 242 241 240 239 237 234 232 232 233 233 233 232 232 233 234 234 235 236 237 238 239 238 238 240 243 247 250 253 255 257 260 262 265 267 269 269 269 269 268 267 267 266 266
217 218 219 220 221 223 225 226 228 230 232 233 235 236 237 239 240 242 243 245 247 248 247 246 244 242 240 238 236 234 232 230 228 227 228 228 229 230 230 231 232 233 234 235 237 239 240 241 242 244 246 248 250 252 254 257 260 262 264 266 267 266 266 265 265 265 265 265 265
218 219 218 219 220 221 223 224 226 229 231 232 234 235 236 237 239 241 242 244 245 245 245 244 242 240 237 235 232 230 228 225 223 221 221 223 225 226 227 228 229 231 232 234 235 236 238 240 242 244 246 247 248 250 253 255 258 259 260 262 264 265 265 265 264 263 262 262 263
218 218 218 218 219 220 221 222 224 226 228 230 232 234 235 236 238 239 241 241 242 243 243 241 240 237 234 231 228 225 223 220 217 216 216 218 220 222 223 224 225 227 228 229 229 230 231 235 239 243 245 247 247 249 251 253 253 255 257 260 263 265 265 263 261 260 261 263 267
217 217 217 217 218 218 220 221 223 224 226 228 231 232 234 235 237 238 239 240 240 240 240 238 236 234 230 227 224 222 219 215 212 211 211 213 215 217 219 219 220 220 222 224 225 226 229 233 239 243 244 245 245 245 246 247 249 252 256 260 263 263 261 259 259 260 264 267 271
216 216 216 216 216 217 218 220 221 223 224 227 229 231 232 233 234 235 236 238 238 237 236 234 231 228 225 223 221 219 216 213 209 207 208 209 211 212 212 213 213 215 217 219 221 225 230 235 239 240 240 240 240 240 241 243 246 251 254 256 256 255 255 257 260 263 267 269 271
213 214 215 215 216 216 217 218 220 221 223 225 227 229 230 230 231 232 233 234 234 234 232 229 225 222 220 219 218 217 215 212 208 205 205 206 206 206 206 207 209 211 214 216 219 223 227 231 233 234 235 235 236 237 239 242 246 248 249 249 249 251 253 257 262 266 268 269 271
211 213 214 214 215 216 216 217 218 220 222 224 225 226 227 227 228 229 230 230 230 229 226 223 220 217 215 214 214 214 212 209 207 205 204 204 202 199 198 200 204 208 210 212 214 217 221 224 227 229 231 232 234 236 239 241 242 243 245 246 248 251 256 260 264 267 269 272 275
210 211 212 213 214 215 215 215 216 218 221 222 223 224 224 224 225 225 226 227 226 223 221 218 216 214 212 211 210 209 208 206 205 204 203 201 197 193 191 195 200 204 206 208 210 213 217 221 224 226 228 230 233 235 236 238 240 242 244 247 251 255 258 261 264 267 271 274 277
209 210 211 212 213 214 214 215 216 217 219 220 221 221 221 222 222 223 224 224 222 219 216 214 213 212 211 209 207 205 203 202 202 201 200 197 192 188 188 192 198 202 205 208 210 213 217 221 223 225 227 229 231 233 236 238 241 244 247 249 251 253 255 258 262 267 271 274 278
208 209 210 212 212 213 214 214 216 217 217 217 217 218 219 219 220 221 221 220 218 216 213 212 211 210 210 209 206 202 200 199 199 199 197 194 191 189 190 194 199 204 207 210 213 216 219 221 223 225 228 230 233 235 238 240 241 243 243 243 243 245 250 255 262 267 272 277 282
208 209 210 211 212 212 212 213 215 215 215 214 214 215 216 218 219 219 218 216 214 213 212 211 209 209 208 207 203 199 197 197 197 197 195 193 192 193 196 200 204 207 209 212 214 217 220 222 225 228 232 235 236 236 235 233 230 229 229 232 236 242 250 257 265 272 278 284 289
206 207 209 210 211 211 211 212 213 212 211 211 212 213 214 216 217 216 215 213 212 210 210 209 209 208 207 205 201 197 195 195 196 196 195 194 195 198 201 204 207 209 211 213 217 220 222 225 227 231 233 233 231 225 218 213 212 217 225 233 240 248 256 265 273 281 287 293 297
206 206 206 208 209 209 209 210 209 208 208 208 210 211 212 213 213 213 212 211 210 208 207 208 208 208 206 203 199 197 195 195 195 196 196 197 198 200 203 205 207 209 212 215 219 222 224 225 226 224 221 215 210 204 200 200 209 223 236 245 253 262 270 278 286 292 297 301 304
206 205 205 205 206 206 206 206 205 205 205 206 207 209 210 210 210 210 209 209 207 206 205 205 206 206 204 202 200 198 197 196 195 196 197 198 199 200 201 202 205 208 212 216 220 221 221 217 210 204 200 197 193 190 192 203 219 236 249 259 268 277 286 292 298 302 305 307 310
204 203 201 201 202 202 203 202 202 203 203 204 205 206 207 207 207 207 207 206 205 203 202 202 203 203 203 202 201 200 199 197 195 195 196 197 197 197 197 199 203 208 212 215 215 212 205 195 189 187 187 187 187 192 204 219 235 247 259 269 278 286 293 299 304 308 310 310 312
200 199 198 198 198 199 199 200 200 200 200 201 203 204 205 205 205 204 203 202 201 200 199 199 200 202 202 201 200 201 201 198 195 194 193 194 193 193 194 198 202 207 208 206 199 189 181 179 179 181 183 189 199 214 227 237 246 254 264 273 281 288 295 301 305 307 307 305 307
197 196 196 196 196 196 196 197 198 198 199 200 202 202 203 203 202 201 200 199 198 197 197 197 199 200 200 198 198 199 199 198 195 193 191 190 189 188 192 198 203 203 199 189 179 174 174 177 180 184 188 196 210 224 236 244 250 258 268 277 283 290 296 301 304 303 299 292 283
194 193 193 194 194 194 194 195 196 197 198 199 200 201 201 200 199 198 197 196 195 195 196 196 198 199 197 195 195 196 196 194 192 190 189 187 185 186 192 198 201 196 187 177 173 173 175 178 180 184 190 198 210 222 232 244 254 265 274 280 286 292 297 300 301 293 269 214 173
193 192 192 192 191 191 192 194 194 196 197 198 199 199 198 197 196 195 195 195 194 194 194 196 196 195 193 192 193 193 191 190 187 186 185 184 185 188 193 197 195 188 178 174 173 174 175 175 177 182 191 202 213 224 235 248 261 270 278 283 287 293 300 299 278 212 172 157 146
192 191 191 190 189 190 191 192 194 195 196 197 197 196 195 195 194 194 194 193 193 193 194 194 193 192 191 191 191 190 188 185 183 181 182 184 187 190 193 193 188 180 175 173 173 173 173 172 178 188 202 217 228 237 244 250 260 270 278 285 292 307 227 165 163 158 151 143 126
191 190 189 189 188 189 190 192 193 194 195 195 195 194 194 194 194 193 192 192 193 194 194 192 190 189 190 190 189 187 184 181 179 178 181 185 188 190 190 187 181 175 172 171 170 170 171 175 186 202 220 234 244 251 252 251 257 269 287 314 61 127 144 152 150 146 139 128 106
190 190 189 189 188 189 190 192 193 193 194 194 194 193 193 193 192 191 192 193 194 195 193 190 188 189 190 189 187 184 182 179 178 179 183 186 188 187 184 179 174 171 169 169 169 169 174 184 199 216 232 247 257 261 260 256 263 287 347 68 113 139 148 150 148 141 133 120 92
190 190 189 189 189 189 190 191 192 193 193 193 193 193 192 191 190 191 192 194 195 194 192 189 188 189 188 187 185 183 180 179 179 181 184 185 183 180 175 171 168 168 168 169 170 174 181 193 207 224 240 254 264 267 265 259 266 55 98 119 130 136 140 140 139 136 127 99 47
190 190 190 190 189 190 190 191 192 192 193 192 192 191 190 189 189 191 194 196 195 193 190 188 188 187 186 184 182 181 180 179 180 181 181 180 177 174 171 167 166 167 170 173 175 180 190 200 213 228 243 255 260 259 249 218 161 138 133 134 133 132 132 130 125 116 86 43 20
190 190 191 191 190 190 191 191 192 192 191 191 190 190 189 188 189 192 194 195 193 190 188 187 187 186 184 182 180 179 178 178 178 177 176 174 173 172 170 167 167 170 173 175 181 189 200 210 222 234 243 247 242 228 204 176 154 146 143 140 136 132 129 123 111 86 54 30 16
192 192 192 193 192 192 192 191 191 190 190 189 188 188 188 189 191 193 193 191 189 186 185 186 186 184 182 180 179 178 176 174 173 173 172 171 172 172 171 168 169 172 176 179 187 198 211 222 230 233 230 222 209 193 177 161 153 148 146 143 139 134 126 114 91 64 40 24 13
195 195 195 195 194 192 191 189 189 189 189 188 187 186 187 189 192 192 191 188 186 184 184 185 185 183 181 178 176 174 173 171 171 171 170 169 170 171 172 172 173 176 179 183 193 205 217 225 225 216 205 195 186 175 164 156 152 150 148 146 141 131 114 90 65 43 28 18 9
196 196 195 193 191 189 188 188 188 188 187 186 186 186 187 189 190 190 189 187 185 184 184 184 184 182 179 175 171 169 168 170 173 172 168 166 168 173 178 180 181 182 184 187 196 206 213 211 199 189 183 180 173 165 158 152 150 148 145 141 129 110 85 64 46 33 22 13 5
193 193 191 189 187 187 187 188 187 186 186 185 185 186 188 189 189 188 187 187 185 185 184 183 182 179 175 170 165 163 164 169 172 171 166 163 168 178 186 189 191 191 191 192 197 200 196 185 176 171 169 167 163 156 151 147 145 141 135 124 103 82 65 51 38 28 18 8 0
187 187 187 187 187 187 187 187 186 186 185 185 185 186 188 188 188 187 187 187 186 184 182 181 178 174 169 165 161 160 162 166 168 166 164 165 172 184 195 198 201 201 200 196 191 185 177 169 163 160 158 154 150 145 143 141 138 132 121 103 84 67 55 44 34 25 14 3 355
184 186 188 189 189 188 186 185 185 185 186 185 185 186 187 188 187 187 186 186 184 182 180 177 172 168 164 161 161 161 162 163 162 162 165 170 178 188 198 204 206 204 198 188 178 169 163 159 156 153 149 145 141 137 134 132 128 119 106 90 72 59 50 40 29 18 8 358 350
186 188 189 190 189 187 186 184 184 185 186 186 186 186 187 188 187 186 185 183 182 179 176 172 167 163 161 161 163 163 162 161 159 162 169 177 184 190 195 198 198 193 184 172 164 159 156 154 151 147 143 140 136 132 128 123 117 105 92 79 64 52 43 31 19 9 1 354 349